User: anonymous   Login
Location: Unspecified
(0.0000°N, 0.0000°E)
Time: 03:35:28
(UTC+00:00)
Language:

Tiros N - Orbit

View from above orbital plane
View from above orbital plane
View from above satellite
View from above satellite

Ground track
Ground track

The orbit data is extracted from the following two-line orbital elements,

1 11060U 78096A   17177.22358089 -.00000003 +00000-0 +20277-4 0  9994
2 11060 098.8936 227.2362 0009791 320.1811 039.8644 14.18161163214024
Epoch (UTC): 26 June 2017 05:21:57
Eccentricity: 0.0009791
inclination: 98.8936°
perigee height: 824 km
apogee height: 838 km
right ascension of ascending node: 227.2362°
argument of perigee: 320.1811°
revolutions per day: 14.18161163
mean anomaly at epoch: 39.8644°
orbit number at epoch: 21402

The dashed part of the orbit path shows where the satellite is in the earth's shadow,  

DLR